Weather History for Opa Locka, FL

Change the Weather History Date:

Wednesday, November 21, 2012

  Actual Average Record
Temperature  
Mean Temperature 68 °F -  
Max Temperature 75 °F 80 °F 88 °F (1986)
Min Temperature 60 °F 65 °F 42 °F (1968)
Cooling Degree Days 2    
Growing Degree Days 18 (Base 50)    
Moisture  
Dew Point 56 °F    
Average Humidity 69    
Maximum Humidity 93    
Minimum Humidity 46    
Precipitation  
Precipitation 0.00 in - - ()
Sea Level Pressure  
Sea Level Pressure 29.99 in    
Wind  
Wind Speed 11 mph (NNW)    
Max Wind Speed 17 mph    
Max Gust Speed 23 mph    
Visibility 10 miles    
Events      
Averages and records for this station are not official NWS values.
T = Trace of Precipitation, MM = Missing Value Source: NWS Daily Summary

Daily Weather History Graph

Daily Weather History Graph

Search for Another Location

Airport:

Trip Planner

Search our weather history database for the weather conditions in past years. The results will help you decide how hot, cold, wet, or windy it might be!

Date:

Astronomy

Nov. 21, 2012 Rise Set
Actual Time 6:43 AM EST 5:30 PM EST
Civil Twilight 6:19 AM EST 5:54 PM EST
Nautical Twilight 5:51 AM EST 6:22 PM EST
Astronomical Twilight 5:23 AM EST 6:50 PM EST
Moon 1:13 PM EST (11/21) 12:37 AM EST (11/21)
Length of Visible Light 11h 35m
Length of Day
10h 46m
First Quarter, 61% of the Moon is Illuminated
Nov 21
First Quarter
Nov 28
Full
Dec 6
Last Quarter
Dec 13
New
Dec 20
First Quarter

Hourly Weather History & Observations

Time (EST) Temp. Dew Point Humidity Pressure Visibility Wind Dir Wind Speed Gust Speed Precip Events Conditions
12:53 AM 64.9 °F 59.0 °F 81% 29.98 in 10.0 mi North 9.2 mph - N/A   Overcast
1:53 AM 63.0 °F 59.0 °F 87% 29.96 in 10.0 mi NNW 10.4 mph - N/A   Clear
2:53 AM 62.1 °F 59.0 °F 90% 29.96 in 10.0 mi NNW 10.4 mph - N/A   Clear
3:53 AM 61.0 °F 57.9 °F 90% 29.97 in 10.0 mi NNW 9.2 mph - N/A   Partly Cloudy
4:53 AM 61.0 °F 57.9 °F 90% 29.96 in 10.0 mi NNW 10.4 mph - N/A   Scattered Clouds
5:53 AM 60.1 °F 57.9 °F 93% 29.98 in 10.0 mi NW 9.2 mph - N/A   Clear
6:53 AM 60.1 °F 57.9 °F 93% 29.99 in 10.0 mi NNW 8.1 mph - N/A   Clear
7:53 AM 62.1 °F 59.0 °F 90% 30.00 in 10.0 mi NNW 10.4 mph - N/A   Clear
8:53 AM 66.0 °F 59.0 °F 78% 30.01 in 10.0 mi NNW 11.5 mph - N/A   Clear
9:53 AM 70.0 °F 60.1 °F 71% 30.02 in 10.0 mi NNW 11.5 mph - N/A   Clear
10:53 AM 72.0 °F 60.1 °F 66% 30.01 in 10.0 mi NNW 11.5 mph - N/A   Clear
11:53 AM 75.0 °F 61.0 °F 62% 29.99 in 10.0 mi NNW 11.5 mph 18.4 mph N/A   Clear
12:53 PM 75.9 °F 60.1 °F 58% 29.96 in 10.0 mi NNW 15.0 mph - N/A   Scattered Clouds
1:53 PM 75.9 °F 57.9 °F 54% 29.94 in 10.0 mi NW 13.8 mph 21.9 mph N/A   Scattered Clouds
2:53 PM 75.9 °F 54.0 °F 46% 29.94 in 10.0 mi North 17.3 mph 23.0 mph N/A   Clear
3:53 PM 73.9 °F 53.1 °F 48% 29.95 in 10.0 mi North 15.0 mph - N/A   Clear
4:53 PM 72.0 °F 51.1 °F 48% 29.96 in 10.0 mi NNW 16.1 mph 20.7 mph N/A   Clear
5:53 PM 69.1 °F 52.0 °F 54% 29.97 in 10.0 mi NNW 10.4 mph - N/A   Clear
6:53 PM 66.9 °F 50.0 °F 54% 29.99 in 10.0 mi NNW 13.8 mph 20.7 mph N/A   Clear
7:53 PM 64.9 °F 50.0 °F 58% 30.01 in 10.0 mi North 11.5 mph 18.4 mph N/A   Clear
8:53 PM 64.0 °F 50.0 °F 60% 30.03 in 10.0 mi North 11.5 mph - N/A   Clear
9:53 PM 63.0 °F 50.0 °F 63% 30.04 in 10.0 mi North 12.7 mph - N/A   Clear
10:53 PM 62.1 °F 50.0 °F 65% 30.04 in 10.0 mi North 11.5 mph - N/A   Clear
11:53 PM 61.0 °F 48.9 °F 64% 30.04 in 10.0 mi North 10.4 mph - N/A   Clear